x

9449880 - Friday Harbor, Wa (frdw1) Weather Station

4:36 - Tue 19th Sep 2017 All times are PDT. -7 hours from GMT.

  • Wind
    7mph, 8mph gusts
  • Sea Temp 52°f
  • Aire Temp 51°f
  • Sea Pressure 1004.8mb
  • 9449880 - Friday Harbor, Wa
  • 9449880 - Friday Harbor, Wa

More Historic Weather Station data

Upgrade to MSW Pro to gain access to the past 30 days of data for over 8000 Wavebouys and Weather Stations around the globe.

Join

Comparision Forecast

View Surf forecast
   
mar 09/19 4:36 7 8 mph 1004.8mb 52f 51f
4:30 6 7 mph 1004.8mb 52f 51f
4:24 6 7 mph 1004.8mb 52f 51f
4:18 6 7 mph 1004.8mb 52f 51f
4:12 7 8 mph 1004.8mb 52f 51f
4:06 7 8 mph 1004.8mb 52f 51f
4:00 6 8 mph 1004.8mb 52f 51f
3:36 7 10 mph 1004.8mb 52f 51f
3:30 8 11 mph 1004.7mb 52f 51f
3:24 8 10 mph 1004.7mb 52f 51f
3:18 7 10 mph 1004.7mb 52f 51f
3:12 8 9 mph 1004.6mb 52f 51f
3:06 6 8 mph 1004.6mb 52f 52f
3:00 3 6 mph 1004.6mb 52f 52f
2:36 5 6 mph 1004.6mb 52f 52f
2:30 5 6 mph 1004.6mb 52f 52f
2:24 6 7 mph 1004.6mb 52f 52f
2:18 5 7 mph 1004.6mb 52f 52f
2:12 3 6 mph 1004.7mb 52f 52f
2:06 5 7 mph 1004.7mb 52f 52f
2:00 5 6 mph 1004.6mb 52f 52f
1:36 6 7 mph 1004.6mb 52f 52f
1:30 5 7 mph 1004.6mb 52f 52f
1:24 5 7 mph 1004.6mb 52f 52f
1:18 5 6 mph 1004.6mb 52f 52f
1:12 3 5 mph 1004.6mb 52f 52f
1:06 3 5 mph 1004.6mb 52f 52f
1:00 3 6 mph 1004.6mb 52f 52f
12:36 6 9 mph 1004.7mb 52f 52f
12:30 6 9 mph 1004.7mb 52f 52f
12:24 6 11 mph 1004.7mb 52f 52f
12:18 7 11 mph 1004.7mb 52f 52f
12:12 8 11 mph 1004.7mb 52f 52f
12:06 7 11 mph 1004.7mb 52f 52f
12:00 7 13 mph 1004.7mb 52f 52f
lun 09/18 11:36 7 13 mph 1004.6mb 52f 53f
11:30 8 11 mph 1004.6mb 52f 53f
11:24 7 11 mph 1004.7mb 52f 53f
11:18 7 10 mph 1004.7mb 52f 53f
11:12 6 9 mph 1004.7mb 52f 53f
11:06 6 9 mph 1004.7mb 52f 53f
11:00 6 9 mph 1004.7mb 52f 53f
10:36 7 9 mph 1004.7mb 52f 53f
10:30 8 11 mph 1004.7mb 52f 53f
10:24 7 10 mph 1004.7mb 52f 53f
10:18 7 9 mph 1004.8mb 52f 54f
10:12 8 10 mph 1004.8mb 52f 54f
10:06 6 8 mph 1004.7mb 52f 54f
10:00 5 8 mph 1004.7mb 52f 54f
9:36 5 8 mph 1004.8mb 52f 53f
9:30 7 9 mph 1004.8mb 52f 54f
9:24 7 9 mph 1004.8mb 52f 54f
9:18 6 14 mph 1004.8mb 52f 54f
9:12 7 11 mph 1004.8mb 52f 54f
9:06 8 11 mph 1004.9mb 52f 54f
9:00 7 10 mph 1004.9mb 52f 54f
8:36 6 9 mph 1005mb 52f 54f
8:30 6 9 mph 1004.9mb 52f 54f
8:24 6 9 mph 1004.9mb 52f 54f
8:18 6 9 mph 1004.9mb 52f 54f
8:12 7 9 mph 1004.9mb 52f 54f
8:06 8 10 mph 1004.9mb 52f 54f
8:00 7 9 mph 1004.9mb 52f 54f
7:36 5 8 mph 1005.1mb 52f 55f
7:30 7 8 mph 1005.1mb 52f 55f
7:24 6 8 mph 1005.1mb 52f 54f
7:18 7 8 mph 1005.1mb 52f 55f
7:12 6 8 mph 1005.2mb 52f 55f
7:06 6 8 mph 1005.2mb 52f 55f
7:00 5 6 mph 1005.2mb 52f 55f
6:36 2 3 mph 1005.4mb 52f 55f
6:30 2 3 mph 1005.4mb 52f 55f
6:24 2 5 mph 1005.4mb 52f 55f
6:18 1 5 mph 1005.4mb 52f 55f
6:12 2 3 mph 1005.4mb 52f 56f
6:06 2 5 mph 1005.4mb 52f 55f
6:00 3 5 mph 1005.4mb 52f 55f
5:36 2 2 mph 1005.7mb 52f 55f
5:30 2 3 mph 1005.7mb 52f 55f
5:24 2 3 mph 1005.7mb 52f 57f
5:18 3 3 mph 1005.7mb 52f 58f
5:12 2 3 mph 1005.7mb 52f 58f
5:06 1 2 mph 1005.9mb 52f 58f
5:00 2 3 mph 1005.9mb 52f 58f
4:36 1 2 mph 1006mb 52f 58f
4:30 2 2 mph 1006.1mb 52f 58f
4:24 2 3 mph 1006.2mb 52f 58f
4:18 5 6 mph 1006.3mb 52f 57f
4:12 5 6 mph 1006.4mb 52f 58f
4:06 3 5 mph 1006.5mb 52f 58f
4:00 3 5 mph 1006.5mb 52f 57f
3:36 2 3 mph 1006.4mb 52f 57f
3:30 3 5 mph 1006.4mb 52f 57f
3:24 5 5 mph 1006.5mb 52f 57f
3:18 3 5 mph 1006.6mb 52f 57f
3:12 5 5 mph 1006.5mb 52f 57f
3:06 3 3 mph 1006.7mb 52f 58f
3:00 2 3 mph 1006.7mb 52f 58f
2:36 6 10 mph 1007.1mb 52f 56f
2:30 7 10 mph 1007.1mb 52f 56f
2:24 7 9 mph 1007.1mb 52f 56f
2:18 6 7 mph 1007.1mb 52f 56f
2:12 5 8 mph 1007.1mb 52f 56f
2:06 5 8 mph 1007.1mb 52f 56f
2:00 6 11 mph 1007.1mb 52f 55f
1:36 3 8 mph 1007.3mb 52f 56f
1:30 7 9 mph 1007.3mb 52f 55f
1:24 6 8 mph 1007.4mb 52f 55f
1:18 3 8 mph 1007.4mb 52f 55f
1:12 7 11 mph 1007.5mb 52f 55f
1:06 8 11 mph 1007.5mb 52f 54f
1:00 7 9 mph 1007.5mb 52f 55f
12:36 3 5 mph 1007.6mb 52f 54f
12:30 5 6 mph 1007.7mb 52f 53f
12:24 5 6 mph 1007.7mb 52f 53f
12:18 3 5 mph 1007.7mb 52f 53f
12:12 5 5 mph 1007.8mb 52f 53f
12:06 5 6 mph 1007.8mb 52f 53f
12:00 6 7 mph 1007.8mb 52f 53f
11:36 6 7 mph 1007.9mb 52f 52f
11:30 7 8 mph 1007.9mb 52f 52f
11:24 7 7 mph 1007.8mb 52f 52f
11:18 6 6 mph 1007.8mb 52f 52f
11:12 5 6 mph 1007.8mb 52f 52f
11:06 3 6 mph 1007.8mb 52f 52f
11:00 5 6 mph 1007.8mb 52f 51f
10:36 3 5 mph 1007.7mb 52f 52f
10:30 3 5 mph 1007.7mb 52f 52f
10:24 3 6 mph 1007.6mb 52f 52f
10:18 3 6 mph 1007.7mb 52f 51f
10:12 5 7 mph 1007.7mb 52f 51f
10:06 5 7 mph 1007.7mb 52f 51f
10:00 3 6 mph 1007.8mb 52f 51f
9:36 2 3 mph 1007.7mb 52f 51f
9:30  -  2 mph 1007.7mb 52f 52f
9:24 1 2 mph 1007.7mb 52f 51f
9:18 1 5 mph 1007.7mb 52f 51f
9:12 3 3 mph 1007.6mb 52f 50f
9:06 2 3 mph 1007.6mb 52f 50f
9:00 2 2 mph 1007.6mb 52f 50f
8:36 2 3 mph 1007.7mb 52f 50f
8:30 2 3 mph 1007.7mb 52f 50f
8:24  -  2 mph 1007.7mb 52f 50f
8:18 2 2 mph 1007.7mb 52f 50f
8:12 2 3 mph 1007.6mb 52f 50f
8:06 2 3 mph 1007.6mb 52f 50f
8:00 2 3 mph 1007.6mb 52f 50f
7:36  -  1 mph 1007.6mb 52f 50f
7:30  -  2 mph 1007.5mb 52f 50f
7:24  -  2 mph 1007.5mb 52f 50f
7:18  -  2 mph 1007.6mb 52f 50f
7:12 2 7 mph 1007.5mb 52f 50f
7:06 3 6 mph 1007.7mb 52f 50f
7:00 1 3 mph 1007.6mb 52f 50f
6:36 7 9 mph 1007.6mb 52f 50f
6:30 7 8 mph 1007.5mb 52f 50f
6:24 7 8 mph 1007.5mb 52f 50f
6:18 5 6 mph 1007.5mb 52f 50f
6:12 2 3 mph 1007.4mb 52f 50f
6:06 2 3 mph 1007.4mb 52f 50f
6:00 1 2 mph 1007.4mb 52f 50f
5:54 1 2 mph 1007.6mb 52f 50f
5:48  -  2 mph 1007.6mb 52f 50f
5:36  -  1 mph 1007.7mb 52f 50f
5:30  -  1 mph 1007.8mb 52f 50f
5:24  -  2 mph 1007.8mb 52f 50f
5:18 1 3 mph 1007.7mb 52f 50f
5:12 2 3 mph 1007.7mb 52f 50f
5:06 2 3 mph 1007.7mb 52f 50f
5:00 3 3 mph 1007.8mb 52f 51f
4:54 2 5 mph 1007.8mb 52f 51f
4:48 2 5 mph 1007.8mb 52f 51f
4:36 3 6 mph 1007.9mb 52f 51f
4:30 3 5 mph 1007.9mb 52f 51f
4:24 3 5 mph 1007.8mb 52f 51f
4:18 3 7 mph 1007.9mb 52f 51f
4:12 6 7 mph 1008.1mb 52f 51f
4:06 6 7 mph 1008.1mb 52f 51f
4:00 6 10 mph 1008.2mb 52f 51f
3:54 6 9 mph 1008.2mb 52f 51f
3:48 5 7 mph 1008.2mb 52f 51f
3:36 5 7 mph 1008.3mb 52f 51f
3:30 6 9 mph 1008.4mb 52f 51f
3:24 7 9 mph 1008.4mb 52f 51f
3:18 6 8 mph 1008.4mb 52f 51f
3:12 6 7 mph 1008.4mb 52f 51f
3:06 5 10 mph 1008.4mb 52f 51f
3:00 6 7 mph 1008.6mb 52f 51f
2:54 6 9 mph 1008.7mb 52f 51f
2:48 6 8 mph 1008.6mb 52f 51f
2:36 7 8 mph 1008.7mb 52f 51f
2:30 7 10 mph 1008.8mb 52f 51f
2:24 7 8 mph 1008.8mb 52f 51f
2:18 7 9 mph 1008.8mb 52f 51f
2:12 5 8 mph 1008.8mb 52f 51f
2:06 5 7 mph 1008.8mb 52f 51f
2:00 6 8 mph 1008.9mb 52f 51f
1:54 5 7 mph 1009mb 52f 51f
1:48 5 6 mph 1009mb 52f 51f
1:36 6 9 mph 1009mb 52f 51f
1:30 7 11 mph 1009mb 52f 51f
1:24 5 8 mph 1008.9mb 52f 51f
1:18 3 8 mph 1009mb 52f 51f
1:12 6 7 mph 1009mb 52f 51f
1:06 6 10 mph 1009.1mb 52f 52f
1:00 7 9 mph 1009mb 52f 52f
12:54 7 10 mph 1009mb 52f 52f
12:48 7 13 mph 1009mb 52f 52f
12:36 5 10 mph 1009.1mb 52f 52f
12:30 6 9 mph 1009.2mb 52f 52f
12:24 5 6 mph 1009.2mb 52f 52f
12:18 5 7 mph 1009.2mb 52f 52f
12:12 6 8 mph 1009.2mb 52f 52f
12:06 5 6 mph 1009.2mb 52f 53f
12:00 2 5 mph 1009.3mb 52f 53f
dom 09/17 11:54 5 6 mph 1009.2mb 52f 52f
11:48 3 6 mph 1009.1mb 52f 52f
11:36 1 2 mph 1009mb 52f 52f
11:30 2 3 mph 1009.1mb 52f 52f
11:24 2 3 mph 1009.1mb 52f 53f
11:18 2 3 mph 1009.1mb 52f 53f
11:12 2 3 mph 1009.1mb 52f 53f
11:06 3 5 mph 1008.9mb 52f 53f
11:00 2 5 mph 1008.9mb 52f 53f
10:54 2 3 mph 1008.8mb 52f 53f
10:48 5 8 mph 1008.6mb 52f 54f
10:36 6 8 mph 1008.5mb 52f 53f
10:30 2 6 mph 1008.5mb 52f 52f
10:24 6 8 mph 1008.6mb 52f 53f
10:18 2 5 mph 1008.6mb 52f 53f
10:12 1 5 mph 1008.6mb 52f 53f
10:06 3 6 mph 1008.5mb 52f 53f
10:00 3 7 mph 1008.4mb 52f 54f
9:54 3 8 mph 1008.4mb 52f 54f
9:48 7 8 mph 1008.4mb 52f 54f
9:36 10 15 mph 1008.4mb 52f 55f
9:30 13 16 mph 1008.4mb 52f 55f
9:24 9 13 mph 1008.5mb 52f 55f
9:18 11 14 mph 1008.5mb 52f 55f
9:12 13 15 mph 1008.4mb 52f 55f
9:06 10 14 mph 1008.4mb 52f 55f
9:00 7 11 mph 1008.3mb 52f 55f
8:54 5 9 mph 1008.3mb 52f 55f
8:48 5 8 mph 1008.3mb 52f 55f
8:36 11 16 mph 1008mb 52f 55f
8:30 13 18 mph 1007.9mb 52f 55f
8:24 8 13 mph 1007.9mb 52f 55f
8:18 10 14 mph 1007.8mb 52f 55f
8:12 9 14 mph 1007.6mb 52f 55f
8:06 7 11 mph 1007.6mb 52f 55f
8:00 6 10 mph 1007.5mb 52f 55f
7:54 5 10 mph 1007.4mb 52f 55f
7:48 6 11 mph 1007.3mb 52f 55f
7:36 9 14 mph 1007.2mb 52f 56f
7:30 8 11 mph 1007.3mb 52f 55f
7:24 7 10 mph 1007.3mb 52f 55f
7:18 6 13 mph 1007.3mb 52f 56f
7:12 9 17 mph 1007.2mb 52f 56f
7:06 9 14 mph 1007.2mb 52f 56f
7:00 8 13 mph 1007.3mb 52f 56f
6:54 9 14 mph 1007.4mb 52f 56f
6:36 13 17 mph 1007.4mb 52f 56f
6:30 14 18 mph 1007.4mb 52f 55f
6:24 10 13 mph 1007.4mb 52f 55f
6:18 7 10 mph 1007.4mb 52f 54f
6:12 5 13 mph 1007.4mb 52f 54f
6:06 8 16 mph 1007.3mb 52f 54f
6:00 13 16 mph 1007.4mb 52f 54f
5:54 13 18 mph 1007.3mb 52f 54f
5:48 14 20 mph 1007.2mb 52f 53f
5:36 14 17 mph 1007.2mb 52f 53f
5:30 14 17 mph 1007.2mb 52f 53f
5:24 14 18 mph 1007.2mb 52f 53f
5:18 14 18 mph 1007.2mb 52f 52f
5:12 14 20 mph 1007.1mb 52f 52f
5:06 17 24 mph 1007.2mb 52f 53f
5:00 15 18 mph 1007.2mb 52f 53f
4:54 6 9 mph 1006.9mb 52f 53f
4:48 6 13 mph 1006.7mb 52f 54f
4:36 16 20 mph 1007mb 52f 55f
4:30 13 16 mph 1006.9mb 52f 55f
4:24 11 16 mph 1006.9mb 52f 56f
4:18 13 17 mph 1006.9mb 52f 56f
4:12 15 17 mph 1006.8mb 52f 56f
4:06 10 14 mph 1006.7mb 52f 56f
4:00 9 10 mph 1006.7mb 52f 56f
3:54 7 13 mph 1006.6mb 52f 56f
3:48 8 13 mph 1006.6mb 52f 56f
3:36 13 17 mph 1006.7mb 52f 58f
3:30 11 20 mph 1006.8mb 52f 59f
3:24 11 20 mph 1006.7mb 52f 58f
3:18 11 20 mph 1006.4mb 52f 58f
3:12 11 18 mph 1006.4mb 52f 58f
3:06 11 16 mph 1006.5mb 52f 58f
3:00 13 20 mph 1006.5mb 52f 58f
2:54 14 20 mph 1006.4mb 52f 58f
2:48 13 24 mph 1006.4mb 52f 58f
2:36 8 13 mph 1006.2mb 52f 58f
2:30 9 14 mph 1006.4mb 52f 58f
2:24 9 14 mph 1006.5mb 52f 58f
2:18 8 15 mph 1006.8mb 52f 58f
2:12 8 11 mph 1006.6mb 52f 59f
2:06 13 18 mph 1006.6mb 52f 59f
2:00 9 16 mph 1006.7mb 52f 59f
1:54 8 13 mph 1006.6mb 52f 59f
1:48 9 15 mph 1006.3mb 52f 59f
1:36 8 16 mph 1006.4mb 52f 59f
1:30 11 15 mph 1006.3mb 52f 59f
1:24 8 14 mph 1006.3mb 52f 58f
1:18 5 8 mph 1006.6mb 52f 58f
1:12 6 10 mph 1006.8mb 52f 58f
1:06 7 10 mph 1006.7mb 52f 58f
1:00 5 6 mph 1006.8mb 52f 57f
12:54 5 7 mph 1006.8mb 52f 56f
12:48 5 7 mph 1006.8mb 52f 56f
12:36 5 6 mph 1007.2mb 53f 57f
12:30 5 8 mph 1007.4mb 53f 58f
12:24 7 10 mph 1007.6mb 53f 57f
12:18 7 11 mph 1007.7mb 53f 58f
12:12 8 11 mph 1007.7mb 53f 58f
12:06 7 13 mph 1008.1mb 53f 58f
12:00 6 11 mph 1008.1mb 53f 57f
11:54 6 11 mph 1008.1mb 53f 57f
11:36 6 10 mph 1008.4mb 53f 56f
11:30 6 13 mph 1008.5mb 53f 56f
11:24 8 11 mph 1008.5mb 53f 56f
11:18 6 9 mph 1008.6mb 53f 56f
11:12 7 13 mph 1008.9mb 53f 56f
11:06 6 11 mph 1008.6mb 53f 56f
11:00 8 13 mph 1008.8mb 53f 56f
10:54 6 10 mph 1008.7mb 53f 56f
10:36 8 11 mph 1008.7mb 53f 56f
10:30 10 13 mph 1008.8mb 53f 56f
10:24 7 13 mph 1009mb 53f 56f
10:18 9 14 mph 1009.1mb 53f 55f
10:12 10 13 mph 1009.1mb 53f 55f
10:06 9 13 mph 1009.1mb 53f 55f
10:00 8 14 mph 1009.3mb 53f 55f
9:54 9 16 mph 1009.3mb 53f 55f
9:48 9 14 mph 1009.3mb 53f 55f
9:36 9 14 mph 1009.3mb 53f 55f
9:30 9 13 mph 1009.2mb 53f 55f
9:24 8 14 mph 1009.2mb 53f 54f
9:18 8 13 mph 1009.3mb 53f 54f
9:12 9 13 mph 1009.3mb 53f 54f
9:06 9 14 mph 1009.3mb 53f 54f
9:00 8 13 mph 1009.2mb 53f 54f
8:54 9 13 mph 1009.3mb 53f 54f
8:48 9 13 mph 1009.3mb 53f 54f
8:36 8 13 mph 1009.3mb 53f 53f
8:30 7 11 mph 1009.3mb 53f 53f
8:24 3 6 mph 1009.2mb 53f 53f
8:18 2 6 mph 1009.2mb 53f 53f
8:12 5 6 mph 1009.1mb 53f 53f
8:06 5 8 mph 1009.1mb 53f 53f
8:00 5 8 mph 1009.2mb 53f 53f
7:54 5 7 mph 1009.3mb 53f 52f
7:48 5 7 mph 1009.3mb 53f 53f
7:36 8 9 mph 1009.5mb 53f 52f
7:30 8 13 mph 1009.7mb 53f 52f
7:24 6 8 mph 1009.5mb 53f 52f
7:18 5 6 mph 1009.3mb 53f 52f
7:12 5 7 mph 1009.5mb 53f 52f
7:06 3 6 mph 1009.7mb 53f 52f
7:00 3 7 mph 1009.8mb 53f 52f
6:54 5 7 mph 1009.6mb 53f 52f
6:48 5 8 mph 1009.4mb 53f 52f
6:36 5 8 mph 1009.6mb 53f 52f
6:30 3 5 mph 1009.7mb 53f 52f
6:24 5 7 mph 1009.7mb 53f 52f
6:18 3 6 mph 1009.7mb 53f 52f
6:12 5 7 mph 1009.7mb 53f 52f
6:06 3 6 mph 1009.8mb 53f 52f
6:00 3 6 mph 1009.9mb 53f 52f
5:54 5 8 mph 1010mb 53f 52f
5:48 2 6 mph 1010mb 53f 51f
5:36 6 8 mph 1010mb 53f 51f
5:30 6 8 mph 1009.9mb 53f 51f
5:24 5 6 mph 1009.9mb 53f 51f
5:18 6 9 mph 1010mb 53f 51f
5:12 8 10 mph 1010mb 53f 51f
5:06 8 13 mph 1010.1mb 53f 51f
5:00 6 8 mph 1010.1mb 53f 51f
4:54 6 8 mph 1010.2mb 53f 51f
4:48 3 6 mph 1010.2mb 53f 51f
4:36 2 5 mph 1010.1mb 53f 51f
4:30 3 6 mph 1010.1mb 53f 51f
4:24 2 5 mph 1010.2mb 53f 51f
4:18 2 5 mph 1010.4mb 53f 51f
4:12 1 5 mph 1010.4mb 53f 51f
4:06  -  2 mph 1010.4mb 53f 51f
4:00  -  2 mph 1010.4mb 53f 51f
3:54  -  2 mph 1010.5mb 53f 51f
3:48 1 2 mph 1010.5mb 53f 51f
3:36 2 5 mph 1010.6mb 53f 51f
3:30 2 5 mph 1010.7mb 53f 51f
3:24 3 6 mph 1010.8mb 53f 50f
3:18 3 6 mph 1010.9mb 53f 51f
3:12 3 5 mph 1010.9mb 53f 51f
3:06 3 5 mph 1010.9mb 53f 51f
3:00 1 5 mph 1011mb 53f 51f
2:54 3 5 mph 1011.1mb 53f 51f
2:48 1 3 mph 1011mb 53f 51f
2:36  -  3 mph 1011mb 53f 51f
2:30 3 5 mph 1011mb 53f 51f
2:24 3 6 mph 1011mb 53f 51f
2:18 5 6 mph 1011mb 53f 51f
2:12 2 3 mph 1011.1mb 53f 51f
2:06  -  1 mph 1011.2mb 53f 51f
2:00  -  2 mph 1011.3mb 53f 51f
1:54  -  2 mph 1011.3mb 53f 51f
1:48 2 3 mph 1011.3mb 53f 51f
1:36  -  1 mph 1011.5mb 53f 51f
1:30 1 2 mph 1011.5mb 53f 51f
1:24 2 2 mph 1011.5mb 53f 51f
1:18 1 2 mph 1011.5mb 53f 51f
1:12 1 3 mph 1011.5mb 53f 51f
1:06 2 3 mph 1011.5mb 53f 52f
1:00 2 3 mph 1011.5mb 53f 52f
12:54 3 3 mph 1011.5mb 53f 52f
12:48 3 5 mph 1011.5mb 53f 51f
12:36  -  1 mph 1011.8mb 53f 51f
12:30 1 2 mph 1011.9mb 53f 51f
12:24 2 5 mph 1011.9mb 53f 51f
12:18 2 5 mph 1012mb 53f 51f
12:12 3 5 mph 1012mb 53f 52f
12:06 5 6 mph 1012.1mb 53f 52f
12:00 5 5 mph 1012.1mb 53f 51f
sáb 09/16 11:54 3 5 mph 1012mb 53f 51f
11:48 2 2 mph 1011.9mb 53f 52f
11:36 2 3 mph 1011.9mb 53f 52f
11:30 1 2 mph 1012mb 53f 52f
11:24 1 2 mph 1012mb 53f 52f
11:18  -  1 mph 1012mb 53f 52f
11:12  -  0 mph 1012mb 53f 52f
11:06  -  1 mph 1012mb 53f 53f
11:00  -  2 mph 1012.1mb 53f 53f
10:54 2 3 mph 1012.2mb 53f 52f
10:36 5 5 mph 1012.3mb 53f 53f
10:30 2 3 mph 1012.3mb 53f 53f
10:24  -  1 mph 1012.3mb 53f 52f
10:18 3 3 mph 1012.3mb 53f 51f
10:12 2 3 mph 1012.3mb 53f 52f
10:06 1 2 mph 1012.3mb 53f 53f
10:00 2 3 mph 1012.3mb 53f 53f
9:54 3 5 mph 1012.3mb 53f 55f
9:48 2 3 mph 1012.3mb 53f 54f
9:36 3 5 mph 1012.3mb 53f 56f
9:30 2 3 mph 1012.3mb 53f 56f
9:24  -  2 mph 1012.4mb 53f 55f
9:18 2 5 mph 1012.4mb 53f 54f
9:12 2 3 mph 1012.3mb 53f 54f
9:06 3 5 mph 1012.3mb 53f 55f
9:00 2 3 mph 1012.3mb 53f 56f
8:54 3 5 mph 1012.3mb 53f 56f
8:48 3 5 mph 1012.3mb 53f 59f
8:36 2 5 mph 1012.3mb 53f 59f
8:30 3 6 mph 1012.3mb 53f 60f
8:24 3 7 mph 1012.3mb 53f 60f
8:18 5 6 mph 1012.3mb 53f 57f
8:12 1 6 mph 1012.3mb 53f 57f
8:06 2 5 mph 1012.3mb 53f 58f
8:00 2 3 mph 1012.2mb 53f 58f
7:54 2 2 mph 1012.2mb 53f 59f
7:48 1 1 mph 1012.2mb 53f 59f
7:36  -  1 mph 1012.2mb 53f 59f
7:30  -  1 mph 1012.3mb 53f 60f
7:24  -  1 mph 1012.3mb 53f 60f
7:18  -  2 mph 1012.4mb 53f 60f
7:12  -  2 mph 1012.5mb 53f 59f
7:06  -  0 mph 1012.6mb 53f 59f
7:00  -  0 mph 1012.7mb 53f 58f
6:54  -  2 mph 1012.8mb 53f 59f
6:48  -  1 mph 1012.8mb 53f 62f
6:36  -  1 mph 1012.9mb 53f 61f
6:30 1 2 mph 1012.9mb 53f 64f
6:24  -  1 mph 1012.9mb 53f 64f
6:18  -  0 mph 1013mb 53f 65f
6:12  -  2 mph 1013mb 54f 64f
6:06 1 2 mph 1013mb 53f 66f
6:00  -  1 mph 1013mb 53f 67f
5:54  -  0 mph 1013.1mb 53f 68f
5:48  -  2 mph 1013.1mb 53f 67f
5:36  -  3 mph 1013.2mb 53f 68f
5:30 3 3 mph 1013.2mb 54f 69f
5:24 3 5 mph 1013.2mb 54f 69f
5:18 3 5 mph 1013.5mb 54f 69f
5:12 3 3 mph 1013.6mb 53f 69f
5:06  -  2 mph 1013.7mb 53f 69f
5:00  -  1 mph 1013.8mb 52f 69f
4:54  -  3 mph 1013.8mb 52f 69f
4:48 2 3 mph 1013.9mb 52f 68f
4:36 2 2 mph 1013.9mb 52f 68f
4:30 2 2 mph 1013.9mb 52f 69f
4:24 2 2 mph 1013.9mb 52f 69f
4:18 2 2 mph 1014mb 52f 69f
4:12 3 3 mph 1013.9mb 52f 69f
4:06 3 3 mph 1014mb 52f 69f
4:00 3 5 mph 1014mb 52f 68f
3:54 3 5 mph 1014mb 52f 68f
3:48 3 5 mph 1014.2mb 52f 68f
3:36 3 5 mph 1014.4mb 52f 67f
3:30 3 5 mph 1014.4mb 52f 66f
3:24 3 5 mph 1014.5mb 52f 66f
3:18 2 3 mph 1014.6mb 52f 67f
3:12 2 3 mph 1014.6mb 52f 67f
3:06 3 3 mph 1014.7mb 52f 66f
3:00 2 3 mph 1014.7mb 52f 67f
2:54 2 2 mph 1014.8mb 52f 66f
2:48 2 2 mph 1014.9mb 53f 66f
2:36 2 2 mph 1015mb 52f 66f
2:30 2 3 mph 1015mb 52f 65f
2:24 2 3 mph 1015.1mb 52f 66f
2:18 1 2 mph 1015.2mb 52f 67f
2:12 2 2 mph 1015.3mb 52f 67f
2:06 1 1 mph 1015.4mb 52f 67f
2:00 1 2 mph 1015.5mb 52f 67f
1:54 1 2 mph 1015.5mb 52f 67f
1:48 1 1 mph 1015.6mb 52f 67f
1:36 2 2 mph 1015.7mb 52f 67f
1:30 1 1 mph 1015.8mb 52f 67f
1:24  -  1 mph 1015.9mb 52f 67f
1:18 1 1 mph 1015.9mb 52f 65f
1:12  -  1 mph 1016mb 52f 64f
1:06 1 2 mph 1016mb 52f 64f
1:00 2 2 mph 1016mb 52f 63f
12:54 1 2 mph 1016.1mb 52f 62f
12:48 1 1 mph 1016.2mb 52f 65f
12:36 1 2 mph 1016.2mb 52f 66f
12:30  -  1 mph 1016.4mb 52f 67f
12:24  -  1 mph 1016.4mb 52f 65f
12:18  -  1 mph 1016.5mb 52f 65f
12:12  -  1 mph 1016.6mb 52f 66f
12:06  -  1 mph 1016.6mb 52f 67f
12:00  -  1 mph 1016.6mb 53f 65f
11:54  -  2 mph 1016.7mb 53f 65f
11:48  -  0 mph 1016.7mb 53f 65f
11:36 2 2 mph 1016.8mb 53f 61f
11:30 1 2 mph 1016.9mb 53f 61f
11:24  -  0 mph 1016.9mb 53f 63f
11:18  -  2 mph 1017mb 53f 62f
11:12  -  1 mph 1017mb 53f 62f
11:06 1 1 mph 1017.1mb 53f 59f
11:00 1 2 mph 1017.1mb 53f 58f
10:54 1 2 mph 1017.1mb 53f 57f
10:48 2 2 mph 1017.1mb 53f 57f
10:36 2 2 mph 1017.2mb 53f 57f
10:30 1 2 mph 1017.2mb 53f 57f
10:24  -  1 mph 1017.2mb 53f 57f
10:18  -  2 mph 1017.2mb 53f 57f
10:12  -  1 mph 1017.2mb 53f 58f
10:06  -  1 mph 1017.3mb 53f 58f
10:00  -  1 mph 1017.3mb 53f 57f
9:54 1 2 mph 1017.3mb 53f 57f
9:48 1 2 mph 1017.3mb 53f 57f
9:36  -  2 mph 1017.4mb 53f 57f
9:30 2 3 mph 1017.4mb 53f 56f
9:24 2 2 mph 1017.4mb 53f 55f
9:18  -  3 mph 1017.5mb 53f 55f
9:12 5 5 mph 1017.4mb 53f 53f
9:06  -  3 mph 1017.5mb 53f 54f
9:00 1 6 mph 1017.4mb 53f 54f
8:54 3 6 mph 1017.4mb 53f 53f
8:48 2 6 mph 1017.4mb 53f 52f
8:36 3 5 mph 1017.3mb 53f 54f
8:30 3 5 mph 1017.4mb 53f 51f
8:24 3 5 mph 1017.4mb 53f 50f
8:18 1 2 mph 1017.2mb 53f 50f
8:12 1 2 mph 1017.2mb 53f 50f
8:06 3 5 mph 1017.2mb 53f 50f
8:00 2 3 mph 1017.1mb 53f 49f
7:54 3 5 mph 1017.2mb 53f 49f
7:48 5 6 mph 1017.2mb 53f 50f
7:36 1 5 mph 1017.1mb 53f 49f
7:30 3 5 mph 1017.2mb 53f 49f
7:24 3 6 mph 1017.1mb 54f 48f
7:18 3 5 mph 1017mb 54f 49f
7:12  -  2 mph 1016.9mb 54f 49f
7:06 2 3 mph 1016.9mb 54f 48f
7:00 2 3 mph 1016.9mb 54f 48f
6:54 3 3 mph 1016.8mb 54f 48f
6:48 2 3 mph 1016.8mb 54f 48f
6:36 3 3 mph 1016.8mb 54f 48f
6:30 2 5 mph 1016.7mb 53f 48f
6:24 3 5 mph 1016.7mb 53f 48f
6:18 3 5 mph 1016.7mb 54f 49f
6:12 3 5 mph 1016.6mb 54f 49f
6:06 3 5 mph 1016.6mb 53f 49f
6:00 2 5 mph 1016.6mb 53f 49f
5:54 3 5 mph 1016.6mb 53f 49f
5:48  -  3 mph 1016.7mb 53f 49f
5:36 1 3 mph 1016.7mb 53f 49f
5:30 2 3 mph 1016.7mb 53f 49f
5:24 2 2 mph 1016.7mb 54f 49f
5:18 2 3 mph 1016.8mb 54f 50f
5:12  -  1 mph 1016.7mb 54f 50f
5:06  -  2 mph 1016.7mb 54f 49f
5:00 2 2 mph 1016.7mb 54f 49f
4:54 2 2 mph 1016.7mb 54f 49f
4:48 2 3 mph 1016.7mb 54f 49f
4:36 2 3 mph 1016.7mb 54f 49f
4:30 2 2 mph 1016.8mb 54f 49f
4:24 2 3 mph 1016.8mb 54f 50f
4:18 2 3 mph 1016.8mb 54f 50f
4:12 2 2 mph 1016.8mb 54f 49f
4:06 2 3 mph 1016.7mb 54f 49f
4:00 2 3 mph 1016.8mb 54f 49f
3:54 2 3 mph 1016.8mb 54f 49f
3:48 2 3 mph 1016.8mb 54f 49f
3:36 2 3 mph 1016.8mb 54f 49f
3:30 3 3 mph 1016.8mb 54f 49f
3:24 2 2 mph 1016.8mb 54f 49f
3:18 2 3 mph 1016.8mb 54f 49f
3:12 3 5 mph 1016.8mb 54f 50f
3:06 3 3 mph 1016.8mb 54f 50f
3:00 2 3 mph 1016.7mb 54f 50f
2:54 2 3 mph 1016.8mb 54f 50f
2:48 2 3 mph 1016.7mb 54f 50f
2:36 1 3 mph 1016.7mb 54f 51f
2:30 2 2 mph 1016.8mb 54f 51f
2:24 1 2 mph 1016.8mb 54f 51f
2:18 2 3 mph 1016.7mb 54f 50f
2:12 2 3 mph 1016.8mb 54f 50f
2:06 2 5 mph 1016.7mb 54f 50f
2:00 1 3 mph 1016.6mb 54f 52f
1:54  -  2 mph 1016.5mb 54f 51f
1:48  -  2 mph 1016.5mb 54f 51f
1:36  -  1 mph 1016.6mb 54f 51f
1:30  -  2 mph 1016.6mb 54f 52f
1:24 1 3 mph 1016.6mb 54f 52f
1:18 1 5 mph 1016.6mb 54f 52f
1:12  -  3 mph 1016.6mb 54f 52f
1:06  -  2 mph 1016.6mb 54f 51f
1:00  -  1 mph 1016.6mb 54f 52f
12:54  -  1 mph 1016.7mb 54f 52f
12:48  -  1 mph 1016.7mb 54f 52f
12:36  -  2 mph 1016.7mb 54f 52f
12:30  -  2 mph 1016.7mb 54f 52f
12:24  -  1 mph 1016.7mb 54f 52f
12:18  -  1 mph 1016.7mb 54f 52f
12:12  -  1 mph 1016.7mb 54f 53f
12:06  -  2 mph 1016.6mb 54f 53f
12:00 1 2 mph 1016.7mb 54f 53f
vie 09/15 11:54 1 3 mph 1016.7mb 54f 53f
11:48 2 2 mph 1016.7mb 54f 53f
11:36 1 5 mph 1016.6mb 54f 53f
11:30 3 5 mph 1016.6mb 54f 53f
11:24  -  2 mph 1016.6mb 54f 53f
11:18 1 3 mph 1016.6mb 54f 53f
11:12 2 3 mph 1016.6mb 54f 53f
11:06 3 5 mph 1016.6mb 54f 54f
11:00 5 6 mph 1016.7mb 54f 53f
10:54 3 5 mph 1016.7mb 54f 54f
10:48 1 3 mph 1016.6mb 54f 53f
10:36 2 3 mph 1016.5mb 54f 54f
10:30  -  2 mph 1016.6mb 54f 53f
10:24 2 3 mph 1016.6mb 54f 53f
10:18 2 3 mph 1016.6mb 54f 54f
10:12 3 5 mph 1016.6mb 54f 55f
10:06 2 5 mph 1016.7mb 54f 54f
10:00 3 5 mph 1016.7mb 54f 53f
9:54 3 5 mph 1016.7mb 54f 53f
9:48 2 2 mph 1016.6mb 54f 54f
9:36 1 2 mph 1016.7mb 54f 55f
9:30  -  2 mph 1016.7mb 54f 55f
9:24  -  2 mph 1016.7mb 54f 55f
9:18 1 5 mph 1016.7mb 54f 56f
9:12 5 8 mph 1016.7mb 54f 56f
9:06 5 7 mph 1016.7mb 54f 58f
9:00 2 5 mph 1016.7mb 54f 55f
8:54 3 3 mph 1016.8mb 54f 55f
8:48 3 5 mph 1016.7mb 54f 55f
8:36 3 6 mph 1016.7mb 54f 56f
8:30 6 7 mph 1016.8mb 54f 56f
8:24 5 6 mph 1016.8mb 54f 58f
8:18 3 6 mph 1016.7mb 54f 59f
8:12 2 6 mph 1016.7mb 54f 59f
8:06 3 6 mph 1016.7mb 54f 59f
8:00 5 6 mph 1016.7mb 54f 59f
7:54 2 6 mph 1016.6mb 54f 59f
7:48 2 7 mph 1016.6mb 54f 58f
7:36 5 6 mph 1016.6mb 54f 59f
7:30 3 7 mph 1016.6mb 54f 58f
7:24 5 6 mph 1016.6mb 54f 58f
7:18 3 5 mph 1016.7mb 54f 59f
7:12 2 3 mph 1016.7mb 54f 60f
7:06 1 5 mph 1016.7mb 54f 60f
7:00 5 6 mph 1016.8mb 54f 60f
6:54 5 5 mph 1016.8mb 54f 61f
6:36  -  2 mph 1016.9mb 54f 60f
6:30  -  1 mph 1017mb 54f 60f
6:24  -  1 mph 1016.9mb 54f 60f
6:18 1 3 mph 1016.9mb 54f 59f
6:12 2 3 mph 1016.9mb 54f 61f
6:06  -  3 mph 1017mb 54f 61f
6:00 1 3 mph 1016.9mb 54f 62f
5:54 3 5 mph 1017mb 54f 64f
5:48 2 5 mph 1016.9mb 53f 64f
5:36 2 3 mph 1016.9mb 53f 64f
5:30 2 3 mph 1017mb 53f 64f
5:24  -  2 mph 1017mb 53f 64f
5:18  -  0 mph 1017.1mb 53f 64f
5:12  -  1 mph 1017.1mb 53f 63f
5:06 1 2 mph 1017mb 53f 62f
5:00  -  2 mph 1017.1mb 54f 62f
4:54  -  2 mph 1017.1mb 54f 62f
4:48 2 3 mph 1017.1mb 54f 60f
4:36 2 6 mph 1017.1mb 53f 63f
4:30 2 3 mph 1017.1mb 53f 67f
4:24  -  2 mph 1017.1mb 53f 70f
4:18  -  1 mph 1017.1mb 53f 68f
4:12  -  1 mph 1017.2mb 54f 66f
4:06  -  2 mph 1017.3mb 54f 65f
4:00 2 3 mph 1017.3mb 54f 65f
3:54 1 2 mph 1017.4mb 54f 66f
3:48  -  2 mph 1017.5mb 55f 67f
3:36 2 5 mph 1017.6mb 54f 65f
3:30 2 3 mph 1017.6mb 54f 65f
3:24 3 5 mph 1017.7mb 54f 64f
3:18 3 5 mph 1017.7mb 53f 65f
3:12 2 3 mph 1017.8mb 52f 65f
3:06 2 3 mph 1017.9mb 52f 66f
3:00 2 3 mph 1017.9mb 52f 64f
2:54 2 3 mph 1018mb 52f 64f
2:36 3 6 mph 1018.2mb 52f 64f
2:30 5 8 mph 1018.3mb 52f 64f
2:24 7 8 mph 1018.3mb 52f 65f
2:18 7 8 mph 1018.4mb 52f 66f
2:12 7 8 mph 1018.4mb 52f 66f
2:06 6 9 mph 1018.5mb 52f 67f
2:00 2 10 mph 1018.5mb 52f 67f
1:54 6 7 mph 1018.5mb 52f 67f
1:48 5 8 mph 1018.6mb 53f 67f
1:36 1 5 mph 1018.7mb 53f 67f
1:30  -  5 mph 1018.8mb 54f 67f